Miscellaneous Local Product
Issued by NWS Hastings, NE

Home | Current Version | Previous Version | Text Only | Print | Product List | Glossary Off
Versions: 1 2 3 4 5 6 7 8 9 10 11 12 13 14 15 16 17 18 19 20 21 22 23 24 25 26 27 28 29 30 31 32 33 34 35 36 37 38 39 40 41 42 43 44 45 46 47 48 49 50

356
AXUS43 KGID 081402
MISGRI

GID CWA HOURLY WEATHER ROUNDUP
NATIONAL WEATHER SERVICE HASTINGS NE
800 AM CST MON FEB 08 2016

NOTE: "FAIR" INDICATES FEW OR NO CLOUDS BELOW 12,000 FEET WITH NO
SIGNIFICANT WEATHER AND/OR OBSTRUCTIONS TO VISIBILITY.

...SOUTH CENTRAL NEBRASKA...

CITY           SKY/WX    TMP DP  RH WIND       PRES   REMARKS
GRAND ISLAND   CLEAR     26  16  65 NW31G38   30.17R WCI   9
HASTINGS       CLEAR     27  16  63 NW25      30.17R WCI  12
ORD            CLEAR     25  16  68 NW26G36   30.18R WCI   9
YORK           CLOUDY    28  19  69 N18G24    30.12S WCI  16
AURORA         MOCLDY    27  18  67 N32G40    30.15S WCI  11
LEXINGTON      CLEAR     27  15  60 NW23G30   30.24R WCI  13
HOLDREGE       CLEAR     27  16  62 NW23G32   30.20R WCI  12
HEBRON         CLOUDY    30  19  63 N31G38    30.15S WCI  14

...NEBRASKA PANHANDLE...

CITY           SKY/WX    TMP DP  RH WIND       PRES   REMARKS
CHADRON        CLOUDY    27  13  55 NW18      30.37S WCI  14
ALLIANCE       CLOUDY    17   9  70 W12       30.32R WCI   4
SCOTTSBLUFF    CLOUDY    23  12  62 W13       30.37S WCI  11
SIDNEY         CLOUDY    20  10  65 NW15      30.33R WCI   6

...WESTERN AND NORTH CENTRAL NEBRASKA...

CITY           SKY/WX    TMP DP  RH WIND       PRES   REMARKS
VALENTINE      CLEAR     24  15  68 NW20G26   30.27R WCI  10
AINSWORTH      CLEAR     25  16  66 NW25G33   30.23S WCI  10
ONEILL         PTCLDY    26  17  69 NW25G39   30.17R WCI  11
BROKEN BOW     CLEAR     26  15  63 NW29G39   30.21R WCI  10
IMPERIAL       CLEAR     25  10  53 NW17G25   30.32S WCI  12
NORTH PLATTE   CLEAR     21  12  68 NW15      30.29R WCI   8
MCCOOK         CLEAR     24  13  62 NW18      30.31R WCI  10

...EASTERN NEBRASKA...

CITY           SKY/WX    TMP DP  RH WIND       PRES   REMARKS
NORFOLK        CLOUDY    27  16  63 N35G45    30.09R WCI  10
SO SIOUX CITY  FLURRIES  26  16  65 N36G48    30.04R WCI   8
TEKAMAH        MIX PCPN  28  17  63 NW35G47   30.05S WCI  11
COLUMBUS       CLOUDY    27  12  54 NW24G31   30.10R WCI  12
ALBION         MOCLDY    27  17  65 NW26G35   30.11S WCI  11
OMAHA EPPLEY   FLURRIES  27  19  72 NW29G43   30.02S WCI  11
OFFUTT AFB     FLURRIES  28  19  70 NW25G33   30.04R WCI  13
MILLARD        CLOUDY    29  19  66 NW16G26   30.05R WCI  18
LINCOLN        CLOUDY    29  18  63 N28G44    30.11R WCI  14
NEBRASKA CITY  FLURRIES  28  20  72 N25G32    30.04R WCI  14
BEATRICE       CLOUDY    29  21  71 N17       30.11S WCI  17
FALLS CITY     CLOUDY    30  19  63 NW26G45   30.04R WCI  16

...NORTHERN KANSAS...

CITY           SKY/WX    TMP DP  RH WIND       PRES   REMARKS
GOODLAND       CLOUDY    21  10  62 NW16      30.33R WCI   7
HILL CITY      CLEAR     28  15  58 NW22G30   30.29S WCI  14
NORTON         SUNNY     25  12  58 NW23G30   30.27R WCI  10
PHILLIPSBURG   CLEAR     28  16  59 NW23G31   30.25S WCI  14
SMITH CENTER   CLEAR     27  18  69 NW17G23   30.23R WCI  14
BELOIT         CLEAR     28  18  64 W9        30.20S WCI  20
HAYS           CLEAR     30   9  40 NW28G36   30.26S WCI  16
RUSSELL        CLEAR     30  16  56 NW24G37   30.23S WCI  16
CONCORDIA      CLOUDY    30  18  60 NW16G23   30.17R WCI  19
SALINA         CLEAR     32  17  54 NW22      30.19R WCI  19
TOPEKA         CLOUDY    33  21  61 NW24G36   30.08R WCI  20



USA.gov is the U.S. government's official web portal to all federal, state and local government web resources and services.